Time,TemperatureF,DewpointF,PressureIn,WindDirection,WindDirectionDegrees,WindSpeedMPH,WindSpeedGustMPH,Humidity,HourlyPrecipIn,Conditions,Clouds,dailyrainin,SoftwareType,DateUTC
2013-01-11 00:10:00,33.3,26.2,30.52,North,356,3.0,3.0,75,0.00,,,0.00,Wunderground v.1.15,2013-01-11 05:10:00,
2013-01-11 00:20:00,33.2,25.8,30.52,North,355,2.0,2.0,74,0.00,,,0.00,Wunderground v.1.15,2013-01-11 05:20:00,
2013-01-11 00:30:00,32.9,25.8,30.52,NE,40,2.0,2.0,75,0.00,,,0.00,Wunderground v.1.15,2013-01-11 05:30:00,
2013-01-11 00:40:00,32.5,25.5,30.52,North,11,2.0,2.0,75,0.00,,,0.00,Wunderground v.1.15,2013-01-11 05:40:00,
2013-01-11 00:50:00,32.1,25.4,30.52,NE,43,2.0,2.0,76,0.00,,,0.00,Wunderground v.1.15,2013-01-11 05:50:00,
2013-01-11 01:00:00,31.9,25.5,30.52,NNE,25,3.0,3.0,77,0.00,,,0.00,Wunderground v.1.15,2013-01-11 06:00:00,
2013-01-11 01:10:00,31.8,25.7,30.52,NE,40,2.0,4.0,78,0.00,,,0.00,Wunderground v.1.15,2013-01-11 06:10:00,
2013-01-11 01:20:00,31.5,25.4,30.52,NNE,32,2.0,2.0,78,0.00,,,0.00,Wunderground v.1.15,2013-01-11 06:20:00,
2013-01-11 01:30:00,31.2,25.4,30.51,NW,326,2.0,3.0,79,0.00,,,0.00,Wunderground v.1.15,2013-01-11 06:30:00,
2013-01-11 01:40:00,31.0,25.6,30.52,NNE,31,3.0,4.0,80,0.00,,,0.00,Wunderground v.1.15,2013-01-11 06:40:00,
2013-01-11 01:50:00,31.0,25.6,30.52,NNE,25,2.0,2.0,80,0.00,,,0.00,Wunderground v.1.15,2013-01-11 06:50:00,
2013-01-11 02:00:00,30.7,25.3,30.52,NNE,16,2.0,2.0,80,0.00,,,0.00,Wunderground v.1.15,2013-01-11 07:00:00,
2013-01-11 02:10:00,30.5,25.1,30.52,NNE,25,2.0,2.0,80,0.00,,,0.00,Wunderground v.1.15,2013-01-11 07:10:00,
2013-01-11 02:20:00,30.3,25.2,30.52,NNE,16,1.0,3.0,81,0.00,,,0.00,Wunderground v.1.15,2013-01-11 07:20:00,
2013-01-11 02:30:00,30.2,24.8,30.52,NNW,347,1.0,1.0,80,0.00,,,0.00,Wunderground v.1.15,2013-01-11 07:30:00,
2013-01-11 02:40:00,30.0,24.6,30.51,NNW,347,1.0,1.0,80,0.00,,,0.00,Wunderground v.1.15,2013-01-11 07:40:00,
2013-01-11 02:50:00,29.7,24.6,30.51,NNW,347,1.0,1.0,81,0.00,,,0.00,Wunderground v.1.15,2013-01-11 07:50:00,
2013-01-11 03:00:00,29.6,24.8,30.51,NW,312,1.0,2.0,82,0.00,,,0.00,Wunderground v.1.15,2013-01-11 08:00:00,
2013-01-11 03:10:00,29.4,24.6,30.51,NW,312,1.0,1.0,82,0.00,,,0.00,Wunderground v.1.15,2013-01-11 08:10:00,
2013-01-11 03:20:00,29.3,24.5,30.50,North,6,2.0,2.0,82,0.00,,,0.00,Wunderground v.1.15,2013-01-11 08:20:00,
2013-01-11 03:30:00,29.4,24.9,30.50,North,1,2.0,4.0,83,0.00,,,0.00,Wunderground v.1.15,2013-01-11 08:30:00,
2013-01-11 03:40:00,29.6,25.1,30.50,North,359,1.0,1.0,83,0.00,,,0.00,Wunderground v.1.15,2013-01-11 08:40:00,
2013-01-11 03:50:00,29.5,25.3,30.50,NE,56,2.0,3.0,84,0.00,,,0.00,Wunderground v.1.15,2013-01-11 08:50:00,
2013-01-11 04:00:00,29.6,25.4,30.49,NNE,16,2.0,3.0,84,0.00,,,0.00,Wunderground v.1.15,2013-01-11 09:00:00,
2013-01-11 04:10:00,29.7,25.2,30.49,NE,50,2.0,3.0,83,0.00,,,0.00,Wunderground v.1.15,2013-01-11 09:10:00,
2013-01-11 04:20:00,29.6,25.4,30.49,NE,36,2.0,2.0,84,0.00,,,0.00,Wunderground v.1.15,2013-01-11 09:20:00,
2013-01-11 04:30:00,29.7,25.2,30.49,NNW,341,2.0,2.0,83,0.00,,,0.00,Wunderground v.1.15,2013-01-11 09:30:00,
2013-01-11 04:40:00,29.7,25.2,30.49,NNW,348,3.0,3.0,83,0.00,,,0.00,Wunderground v.1.15,2013-01-11 09:40:00,
2013-01-11 04:50:00,29.8,25.3,30.48,NE,39,3.0,3.0,83,0.00,,,0.00,Wunderground v.1.15,2013-01-11 09:50:00,
2013-01-11 05:10:00,29.4,24.9,30.48,NE,42,2.0,2.0,83,0.00,,,0.00,Wunderground v.1.15,2013-01-11 10:10:00,
2013-01-11 05:20:00,29.1,24.6,30.48,NE,53,2.0,2.0,83,0.00,,,0.00,Wunderground v.1.15,2013-01-11 10:20:00,
2013-01-11 05:30:00,28.6,24.4,30.48,NNE,29,2.0,2.0,84,0.00,,,0.00,Wunderground v.1.15,2013-01-11 10:30:00,
2013-01-11 05:40:00,28.5,24.6,30.49,NNE,33,2.0,2.0,85,0.00,,,0.00,Wunderground v.1.15,2013-01-11 10:40:00,
2013-01-11 05:50:00,28.5,24.6,30.49,NNE,25,2.0,2.0,85,0.00,,,0.00,Wunderground v.1.15,2013-01-11 10:50:00,
2013-01-11 06:00:00,28.5,24.6,30.49,NE,51,2.0,4.0,85,0.00,,,0.00,Wunderground v.1.15,2013-01-11 11:00:00,
2013-01-11 06:10:00,28.5,24.6,30.49,NE,56,2.0,2.0,85,0.00,,,0.00,Wunderground v.1.15,2013-01-11 11:10:00,
2013-01-11 06:20:00,28.5,24.6,30.50,NNE,25,2.0,2.0,85,0.00,,,0.00,Wunderground v.1.15,2013-01-11 11:20:00,
2013-01-11 06:30:00,28.5,24.8,30.50,North,356,2.0,2.0,86,0.00,,,0.00,Wunderground v.1.15,2013-01-11 11:30:00,
2013-01-11 06:40:00,28.7,25.0,30.51,NE,34,2.0,2.0,86,0.00,,,0.00,Wunderground v.1.15,2013-01-11 11:40:00,
2013-01-11 06:50:00,29.0,25.3,30.50,NNE,25,2.0,2.0,86,0.00,,,0.00,Wunderground v.1.15,2013-01-11 11:50:00,
2013-01-11 07:00:00,29.3,25.6,30.51,NE,40,2.0,2.0,86,0.00,,,0.00,Wunderground v.1.15,2013-01-11 12:00:00,
2013-01-11 07:10:00,29.3,25.6,30.51,NNE,27,1.0,2.0,86,0.00,,,0.00,Wunderground v.1.15,2013-01-11 12:10:00,
2013-01-11 07:20:00,29.4,25.7,30.51,NNE,25,1.0,1.0,86,0.00,,,0.00,Wunderground v.1.15,2013-01-11 12:20:00,
2013-01-11 07:30:00,29.4,25.7,30.52,NNE,25,1.0,3.0,86,0.00,,,0.00,Wunderground v.1.15,2013-01-11 12:30:00,
2013-01-11 07:40:00,29.5,25.8,30.52,NNE,25,1.0,1.0,86,0.00,,,0.00,Wunderground v.1.15,2013-01-11 12:40:00,
2013-01-11 07:50:00,29.7,26.0,30.51,NNE,25,1.0,1.0,86,0.00,,,0.00,Wunderground v.1.15,2013-01-11 12:50:00,
2013-01-11 08:00:00,29.9,26.5,30.51,NNE,25,0.0,0.0,87,0.00,,,0.00,Wunderground v.1.15,2013-01-11 13:00:00,
2013-01-11 08:10:00,30.3,26.9,30.51,NNE,25,0.0,0.0,87,0.00,,,0.00,Wunderground v.1.15,2013-01-11 13:10:00,
2013-01-11 08:20:00,30.9,27.8,30.51,NNE,25,1.0,2.0,88,0.00,,,0.00,Wunderground v.1.15,2013-01-11 13:20:00,
2013-01-11 08:30:00,31.5,28.4,30.51,NNE,25,1.0,1.0,88,0.00,,,0.00,Wunderground v.1.15,2013-01-11 13:30:00,
2013-01-11 08:40:00,32.0,28.6,30.52,NNE,25,1.0,2.0,87,0.00,,,0.00,Wunderground v.1.15,2013-01-11 13:40:00,
2013-01-11 08:50:00,32.4,28.7,30.52,NNE,25,1.0,1.0,86,0.00,,,0.00,Wunderground v.1.15,2013-01-11 13:50:00,
2013-01-11 09:00:00,32.7,28.7,30.52,NNE,25,0.0,1.0,85,0.00,,,0.00,Wunderground v.1.15,2013-01-11 14:00:00,
2013-01-11 09:10:00,33.0,28.7,30.51,NNE,25,1.0,1.0,84,0.00,,,0.00,Wunderground v.1.15,2013-01-11 14:10:00,
2013-01-11 09:20:00,33.5,29.2,30.51,NNE,25,0.0,0.0,84,0.00,,,0.00,Wunderground v.1.15,2013-01-11 14:20:00,
2013-01-11 09:30:00,34.3,29.7,30.51,NNE,25,0.0,0.0,83,0.00,,,0.00,Wunderground v.1.15,2013-01-11 14:30:00,
2013-01-11 09:40:00,34.8,29.9,30.50,NNE,25,0.0,1.0,82,0.00,,,0.00,Wunderground v.1.15,2013-01-11 14:40:00,
2013-01-11 09:50:00,35.3,30.4,30.50,NNE,25,1.0,1.0,82,0.00,,,0.00,Wunderground v.1.15,2013-01-11 14:50:00,
2013-01-11 10:00:00,35.7,30.4,30.51,NW,315,2.0,2.0,81,0.00,,,0.00,Wunderground v.1.15,2013-01-11 15:00:00,
2013-01-11 10:10:00,35.9,30.9,30.51,NW,315,2.0,2.0,82,0.00,,,0.00,Wunderground v.1.15,2013-01-11 15:10:00,
2013-01-11 10:20:00,36.2,31.2,30.50,NW,315,1.0,1.0,82,0.00,,,0.00,Wunderground v.1.15,2013-01-11 15:20:00,
2013-01-11 10:30:00,36.5,31.5,30.50,NW,315,0.0,0.0,82,0.00,,,0.00,Wunderground v.1.15,2013-01-11 15:30:00,
2013-01-11 10:40:00,37.3,32.3,30.49,NW,315,0.0,2.0,82,0.00,,,0.00,Wunderground v.1.15,2013-01-11 15:40:00,
2013-01-11 10:50:00,38.4,33.1,30.47,NNW,330,1.0,1.0,81,0.00,,,0.00,Wunderground v.1.15,2013-01-11 15:50:00,
2013-01-11 11:00:00,39.9,33.9,30.46,NE,54,2.0,4.0,79,0.00,,,0.00,Wunderground v.1.15,2013-01-11 16:00:00,
2013-01-11 11:10:00,41.1,34.1,30.46,ESE,116,3.0,3.0,76,0.00,,,0.00,Wunderground v.1.15,2013-01-11 16:10:00,
2013-01-11 11:20:00,41.9,34.2,30.46,East,91,1.0,1.0,74,0.00,,,0.00,Wunderground v.1.15,2013-01-11 16:20:00,
2013-01-11 11:30:00,42.6,34.5,30.45,East,91,2.0,2.0,73,0.00,,,0.00,Wunderground v.1.15,2013-01-11 16:30:00,
2013-01-11 11:40:00,42.8,34.4,30.44,SE,139,2.0,3.0,72,0.00,,,0.00,Wunderground v.1.15,2013-01-11 16:40:00,
2013-01-11 11:50:00,42.6,33.9,30.44,SE,134,1.0,1.0,71,0.00,,,0.00,Wunderground v.1.15,2013-01-11 16:50:00,
2013-01-11 12:00:00,41.9,33.9,30.44,SSE,157,1.0,2.0,73,0.00,,,0.00,Wunderground v.1.15,2013-01-11 17:00:00,
2013-01-11 12:10:00,42.2,33.8,30.42,ESE,109,2.0,2.0,72,0.00,,,0.00,Wunderground v.1.15,2013-01-11 17:10:00,
2013-01-11 12:20:00,42.6,33.9,30.42,SSE,156,2.0,2.0,71,0.00,,,0.00,Wunderground v.1.15,2013-01-11 17:20:00,
2013-01-11 12:30:00,42.1,34.1,30.42,South,176,1.0,1.0,73,0.00,,,0.00,Wunderground v.1.15,2013-01-11 17:30:00,
2013-01-11 12:40:00,40.6,33.3,30.42,West,275,3.0,3.0,75,0.00,,,0.00,Wunderground v.1.15,2013-01-11 17:40:00,
2013-01-11 12:50:00,39.7,33.4,30.42,West,275,1.0,1.0,78,0.00,,,0.00,Wunderground v.1.15,2013-01-11 17:50:00,
2013-01-11 13:00:00,39.6,33.6,30.42,West,275,0.0,0.0,79,0.00,,,0.00,Wunderground v.1.15,2013-01-11 18:00:00,
2013-01-11 13:10:00,40.2,34.2,30.41,WSW,258,1.0,1.0,79,0.00,,,0.00,Wunderground v.1.15,2013-01-11 18:10:00,
2013-01-11 13:20:00,41.1,34.8,30.41,ESE,120,2.0,2.0,78,0.00,,,0.00,Wunderground v.1.15,2013-01-11 18:20:00,
2013-01-11 13:30:00,41.7,34.4,30.41,SE,125,2.0,2.0,75,0.00,,,0.00,Wunderground v.1.15,2013-01-11 18:30:00,
2013-01-11 13:40:00,41.9,34.2,30.41,SE,127,2.0,2.0,74,0.00,,,0.00,Wunderground v.1.15,2013-01-11 18:40:00,
2013-01-11 13:50:00,41.9,34.2,30.40,SE,125,2.0,2.0,74,0.00,,,0.00,Wunderground v.1.15,2013-01-11 18:50:00,
2013-01-11 14:00:00,42.0,34.6,30.39,SE,138,2.0,2.0,75,0.00,,,0.00,Wunderground v.1.15,2013-01-11 19:00:00,
2013-01-11 14:10:00,42.0,34.6,30.38,SE,139,2.0,2.0,75,0.00,,,0.00,Wunderground v.1.15,2013-01-11 19:10:00,
2013-01-11 14:20:00,41.9,34.6,30.38,SE,131,2.0,4.0,75,0.00,,,0.00,Wunderground v.1.15,2013-01-11 19:20:00,
2013-01-11 14:30:00,41.8,34.5,30.39,SE,132,2.0,2.0,75,0.00,,,0.00,Wunderground v.1.15,2013-01-11 19:30:00,
2013-01-11 14:40:00,41.7,34.4,30.39,SE,132,1.0,4.0,75,0.00,,,0.00,Wunderground v.1.15,2013-01-11 19:40:00,
2013-01-11 14:50:00,41.6,34.6,30.39,SE,132,1.0,1.0,76,0.00,,,0.00,Wunderground v.1.15,2013-01-11 19:50:00,
2013-01-11 15:00:00,41.6,34.9,30.40,SE,133,1.0,1.0,77,0.00,,,0.00,Wunderground v.1.15,2013-01-11 20:00:00,
2013-01-11 15:10:00,41.5,34.5,30.40,SE,133,0.0,0.0,76,0.00,,,0.00,Wunderground v.1.15,2013-01-11 20:10:00,
2013-01-11 15:20:00,41.4,34.7,30.39,SE,133,1.0,1.0,77,0.00,,,0.00,Wunderground v.1.15,2013-01-11 20:20:00,
2013-01-11 15:30:00,41.3,34.3,30.38,SE,133,0.0,1.0,76,0.00,,,0.00,Wunderground v.1.15,2013-01-11 20:30:00,
2013-01-11 15:40:00,41.1,34.4,30.37,SE,133,0.0,0.0,77,0.00,,,0.00,Wunderground v.1.15,2013-01-11 20:40:00,
2013-01-11 15:50:00,40.9,34.2,30.37,SE,133,0.0,0.0,77,0.00,,,0.00,Wunderground v.1.15,2013-01-11 20:50:00,
2013-01-11 16:00:00,40.7,34.4,30.37,SE,133,0.0,0.0,78,0.00,,,0.00,Wunderground v.1.15,2013-01-11 21:00:00,
2013-01-11 16:10:00,40.5,34.5,30.37,SE,133,1.0,1.0,79,0.00,,,0.00,Wunderground v.1.15,2013-01-11 21:10:00,
2013-01-11 16:20:00,40.3,34.3,30.36,SE,133,1.0,1.0,79,0.00,,,0.00,Wunderground v.1.15,2013-01-11 21:20:00,
2013-01-11 16:30:00,40.1,34.4,30.35,SE,133,2.0,2.0,80,0.00,,,0.00,Wunderground v.1.15,2013-01-11 21:30:00,
2013-01-11 16:40:00,39.8,34.1,30.35,SE,133,1.0,2.0,80,0.00,,,0.00,Wunderground v.1.15,2013-01-11 21:40:00,
2013-01-11 16:50:00,39.6,34.2,30.34,SE,133,2.0,2.0,81,0.00,,,0.00,Wunderground v.1.15,2013-01-11 21:50:00,
2013-01-11 16:59:00,39.4,34.1,30.34,SE,125,2.0,2.0,81,0.00,,,0.00,Wunderground v.1.15,2013-01-11 21:59:00,
2013-01-11 17:10:00,39.3,34.0,30.34,SE,124,2.0,3.0,81,0.00,,,0.00,Wunderground v.1.15,2013-01-11 22:10:00,
2013-01-11 17:20:00,39.3,34.3,30.34,SE,124,2.0,2.0,82,0.00,,,0.00,Wunderground v.1.15,2013-01-11 22:20:00,
2013-01-11 17:30:00,39.2,34.2,30.34,SE,124,2.0,2.0,82,0.00,,,0.00,Wunderground v.1.15,2013-01-11 22:30:00,
2013-01-11 17:40:00,39.2,34.2,30.33,ESE,123,2.0,2.0,82,0.00,,,0.00,Wunderground v.1.15,2013-01-11 22:40:00,
2013-01-11 17:50:00,39.2,34.2,30.33,ESE,123,2.0,3.0,82,0.00,,,0.00,Wunderground v.1.15,2013-01-11 22:50:00,
2013-01-11 18:00:00,39.1,34.1,30.34,SE,125,2.0,2.0,82,0.00,,,0.00,Wunderground v.1.15,2013-01-11 23:00:00,
2013-01-11 18:10:00,39.1,34.4,30.34,SE,125,2.0,2.0,83,0.00,,,0.00,Wunderground v.1.15,2013-01-11 23:10:00,
2013-01-11 18:20:00,39.1,34.7,30.33,SE,125,2.0,2.0,84,0.00,,,0.00,Wunderground v.1.15,2013-01-11 23:20:00,
2013-01-11 18:30:00,38.9,34.8,30.33,SE,126,3.0,3.0,85,0.00,,,0.00,Wunderground v.1.15,2013-01-11 23:30:00,
2013-01-11 18:40:00,38.8,34.7,30.33,ESE,121,3.0,3.0,85,0.00,,,0.00,Wunderground v.1.15,2013-01-11 23:40:00,
2013-01-11 18:50:00,38.8,34.7,30.32,SE,129,3.0,4.0,85,0.00,,,0.00,Wunderground v.1.15,2013-01-11 23:50:00,
2013-01-11 19:00:00,39.0,34.9,30.33,SSE,148,3.0,3.0,85,0.00,,,0.00,Wunderground v.1.15,2013-01-12 00:00:00,
2013-01-11 19:10:00,39.1,35.0,30.33,SE,139,3.0,5.0,85,0.00,,,0.00,Wunderground v.1.15,2013-01-12 00:10:00,
2013-01-11 19:20:00,39.2,35.1,30.32,East,96,4.0,4.0,85,0.00,,,0.00,Wunderground v.1.15,2013-01-12 00:20:00,
2013-01-11 19:30:00,39.3,35.2,30.32,SE,139,4.0,4.0,85,0.00,,,0.00,Wunderground v.1.15,2013-01-12 00:30:00,
2013-01-11 19:40:00,39.3,35.2,30.31,ESE,107,4.0,7.0,85,0.00,,,0.00,Wunderground v.1.15,2013-01-12 00:40:00,
2013-01-11 19:50:00,39.3,35.2,30.31,ESE,114,4.0,8.0,85,0.00,,,0.00,Wunderground v.1.15,2013-01-12 00:50:00,
2013-01-11 20:00:00,39.3,35.2,30.30,SE,146,4.0,4.0,85,0.00,,,0.00,Wunderground v.1.15,2013-01-12 01:00:00,
2013-01-11 20:10:00,39.4,35.6,30.30,ESE,106,4.0,6.0,86,0.00,,,0.00,Wunderground v.1.15,2013-01-12 01:10:00,
2013-01-11 20:20:00,39.5,35.4,30.30,SE,142,5.0,5.0,85,0.00,,,0.00,Wunderground v.1.15,2013-01-12 01:20:00,
2013-01-11 20:30:00,39.6,35.8,30.30,SSE,164,4.0,4.0,86,0.00,,,0.00,Wunderground v.1.15,2013-01-12 01:30:00,
2013-01-11 20:40:00,39.6,36.0,30.30,SE,141,4.0,4.0,87,0.00,,,0.00,Wunderground v.1.15,2013-01-12 01:40:00,
2013-01-11 20:50:00,39.6,36.3,30.28,SSE,147,5.0,5.0,88,0.00,,,0.00,Wunderground v.1.15,2013-01-12 01:50:00,
2013-01-11 21:00:00,39.5,36.5,30.28,East,87,5.0,10.0,89,0.00,,,0.00,Wunderground v.1.15,2013-01-12 02:00:00,
2013-01-11 21:10:00,39.3,36.6,30.28,SE,146,5.0,5.0,90,0.00,,,0.01,Wunderground v.1.15,2013-01-12 02:10:00,
2013-01-11 21:20:00,39.1,37.0,30.28,SE,137,5.0,5.0,92,0.00,,,0.01,Wunderground v.1.15,2013-01-12 02:20:00,
2013-01-11 21:30:00,39.0,36.9,30.28,SE,146,5.0,5.0,92,0.00,,,0.02,Wunderground v.1.15,2013-01-12 02:30:00,
2013-01-11 21:40:00,39.1,37.2,30.27,SE,134,4.0,4.0,93,0.07,,,0.03,Wunderground v.1.15,2013-01-12 02:40:00,
2013-01-11 21:50:00,39.1,37.2,30.27,SE,131,5.0,5.0,93,0.00,,,0.03,Wunderground v.1.15,2013-01-12 02:50:00,
2013-01-11 22:00:00,39.1,37.5,30.27,SE,137,4.0,10.0,94,0.00,,,0.04,Wunderground v.1.15,2013-01-12 03:00:00,
2013-01-11 22:10:00,39.1,37.5,30.27,ESE,119,5.0,5.0,94,0.00,,,0.04,Wunderground v.1.15,2013-01-12 03:10:00,
2013-01-11 22:20:00,39.1,37.5,30.27,SE,134,5.0,5.0,94,0.04,,,0.05,Wunderground v.1.15,2013-01-12 03:20:00,
2013-01-11 22:30:00,39.1,37.8,30.26,East,93,5.0,5.0,95,0.04,,,0.05,Wunderground v.1.15,2013-01-12 03:30:00,
2013-01-11 22:40:00,39.1,37.8,30.26,SE,124,4.0,4.0,95,0.09,,,0.07,Wunderground v.1.15,2013-01-12 03:40:00,
2013-01-11 22:50:00,39.2,37.9,30.28,SE,142,4.0,4.0,95,0.06,,,0.07,Wunderground v.1.15,2013-01-12 03:50:00,
2013-01-11 23:00:00,39.2,37.9,30.27,SE,146,4.0,7.0,95,0.05,,,0.08,Wunderground v.1.15,2013-01-12 04:00:00,
2013-01-11 23:10:00,39.2,37.9,30.26,SE,133,4.0,7.0,95,0.06,,,0.09,Wunderground v.1.15,2013-01-12 04:10:00,
2013-01-11 23:20:00,39.2,37.9,30.25,East,101,4.0,4.0,95,0.00,,,0.09,Wunderground v.1.15,2013-01-12 04:20:00,
2013-01-11 23:30:00,39.2,37.9,30.25,SE,128,4.0,4.0,95,0.08,,,0.11,Wunderground v.1.15,2013-01-12 04:30:00,
2013-01-11 23:40:00,39.2,37.9,30.24,SE,146,4.0,8.0,95,0.05,,,0.11,Wunderground v.1.15,2013-01-12 04:40:00,
2013-01-11 23:50:00,39.3,38.0,30.23,SSE,166,5.0,5.0,95,0.00,,,0.12,Wunderground v.1.15,2013-01-12 04:50:00,